RESURS O1

Satellite information

Favourite Embed

Satellite Type and Status

PAYLOADIN ORBIT

Key statistics

Satellite RESURS O1 at a glance.

Uptime

11203

Days in orbit

Revolutions

≈ 14.8

Per day

Orbit

SSO

Sun Synchronous Orbit

Inclination

97.7

Latest

Satellite identification and parameters

Extended collection of information and parameters for RESURS O1.

Object identification

Identified? True

Debris? False

Object name: RESURS O1

International designator: 1994-074A

Object number (NORAD): 23342

Object ID (CCSDS): 23342

Country: COMMONWEALTH OF INDEPENDENT STATES (CIS)

Current information (Y/N): Y

RCS size: LARGE

Orbital parameters

Period: 97.01 minutes

Inclination: 97.6893 deg

SMA: 6993.672 km

Apoapsis: 616.992 km

Periapsis: 614.083 km

RAAN: 213.7937 deg

Eccentricy: 0.000208

Argument of periapsis: 104.0386 deg

Mean anomaly: 256.106 deg

Mean motion: 14.84379112 rev/day

Mean motion (dot): 0.00000825 rev/day2

B* drag term: 0.00010429 1/REarth

Two-line elements (TLE)

Creation date: July 6, 2025, 6:05 p.m.

Reference frame: TEME

Reference center: EARTH

Epoch: July 6, 2025, 2:58 p.m. UTC

TLE line 0: 0 RESURS O1

TLE line 1: 1 23342U 94074A 25187.62389104 .00000825 00000-0 10429-3 0 9998

TLE line 2: 2 23342 97.6893 213.7937 0002080 104.0386 256.1060 14.84379112652656

Live tracking on map

Real-time ground track for satellite RESURS O1.

In-orbit conjunctions

A list of the most updated potential collisions computed for object RESURS O1.

Target Orbit TCA Probability of collision Miss distance Type
CZ-6A DEB LEO 2025-04-23 07:51:21 0.0002520207 473.0 (m) DEBRIS
SL-14 R/B LEO 2025-02-13 19:33:01 0.0005121777 722.0 (m) ROCKET BODY
COSMOS 2251 DEB LEO 2025-01-22 00:00:48 0.0002746308 706.0 (m) DEBRIS

Associated space launch

Resurs-O1 N3 or Resurs-O1 1 is the third earth observation satellite in the Russian Resurs-O1 program.

RESURS O1 was lifted into orbit during the mission ‘Zenit-2 | Resurs-O1’, on board a Zenit-2 space rocket.

The launch took place on Nov. 4, 1994, 5:47 a.m. from 45/1.

For more information about the launch, click the button.

Launch to space Zenit-2 | Resurs-O1
Zenit-2 | Resurs-O1

Agency: N/A

Status: Launch Successful

Launch date: Nov. 4, 1994, 5:47 a.m. UTC

Rocket: Zenit-2

Launch pad: 45/1

Location: Baikonur Cosmodrome, Republic of Kazakhstan

...

Latest news about this satellite

There are no fresh news available about this satellite. Check back as we update our databases every day.


Newsletter sign-up

Weekly statistics, charts and insights to help you stay on top of the space industry.